Location: Newark
(35.0033°N, 81.0878°W)
Time: 17:34:46
(UTC+00:00)

N. Korean satellite - Visible Passes

Search period start: 26 July 2021 00:00
Search period end: 05 August 2021 00:00
Orbit: 451 x 497 km, 97.2° (Epoch: 25 July)

Date Brightness Start Highest point End Pass type
(mag) Time Alt. Az. Time Alt. Az. Time Alt. Az.
26 Jul 9.3 09:57:28 10° NE 10:00:10 20° E 10:02:50 10° SE visible
30 Jul 9.7 09:42:02 10° ENE 09:43:27 12° E 09:44:53 10° ESE visible
02 Aug 9.4 09:52:00 10° NE 09:54:20 17° E 09:56:37 10° SE visible
